Location: �perlecques
(50.8057°N, 2.1521°E)
Time: 08:46:41
(UTC+00:00)

STARS - Pass Details

Date: 11 April 2023
Orbit: 616 x 630 km, 98.1° (Epoch: 02 June)

Event Time Altitude Azimuth Distance (km) Brightness Sun altitude
Rises 23:43:49 0° 11° (N) 2,926 ? -30.7°
Reaches altitude 10° 23:46:03 10° 7° (N) 2,016 ? -30.7°
Enters shadow 23:48:51 36° 347° (NNW) 1,002 ? -30.7°
